Location: Akho
(42.3047°N, 44.1844°E)
Time: 09:16:45
(UTC+00:00)

STARLINK-23 - Pass Details

Date: 07 June 2020
Orbit: 434 x 435 km, 53.0° (Epoch: 06 July)

Event Time Altitude Azimuth Distance (km) Brightness Sun altitude
Exits shadow 23:08:02 28° 136° (SE) 842 4.4 -18.7°
Drops below altitude 10° 23:11:08 10° 73° (ENE) 1,543 6.6 -18.4°
Enters shadow 00:05:41 -73° 235° (SW) 12,615 10.4 -12.4°
Maximum altitude 00:45:07 38° 331° (NNW) 679 4.2 -7.1°
